Wind_Speed
8 8 7 7 3 4 3 6 2 5 2 3 2 5 6 4 3 5 14 25 24 30 29 28 25 23 22 20 18 16 14 11 9 8 8 7 8 11 8 12 14 16 15 13 11 9 9 10 10
10 10 5 2 5 3 5 4 5 4 11 8 7 8 1 3 1 9 26 18 23 29 29 28 26 24 22 21 18 16 15 12 9 9 7 6 7 10 10 12 11 12 13 13 11 10 11 13 13
13 11 5 4 4 6 5 3 2 12 15 5 1 3 2 4 3 25 12 24 25 26 29 28 26 25 23 21 19 17 14 13 11 8 8 7 8 10 12 13 10 10 10 11 11 11 12 12 12
12 7 2 1 6 6 6 2 4 8 11 9 3 5 4 3 11 16 17 19 23 26 28 28 27 25 23 20 18 17 15 13 11 10 10 10 8 8 11 15 12 9 8 9 10 10 11 10 10
12 5 4 7 7 5 3 3 7 6 7 20 17 4 4 10 12 11 16 22 22 25 28 28 27 25 23 20 19 17 15 15 14 14 10 9 9 8 11 15 12 10 8 7 8 8 8 8 8
7 3 3 8 16 10 3 4 3 4 10 26 7 3 4 12 11 16 19 20 19 27 28 27 26 25 23 21 19 19 18 16 15 15 11 12 10 10 11 14 13 10 8 6 8 7 7 8 7
6 4 5 11 6 6 6 5 4 2 9 8 22 2 7 11 14 19 20 17 18 26 28 28 26 24 23 21 20 19 17 14 13 14 13 14 12 11 12 14 13 10 9 7 8 7 7 7 7
4 4 4 5 11 13 8 15 7 6 5 18 9 5 6 19 20 22 20 16 19 25 27 26 26 25 23 21 20 18 15 13 11 12 13 14 15 13 13 14 14 11 9 8 7 7 7 7 8
8 2 9 9 7 4 15 15 27 11 10 17 13 22 11 24 24 26 23 22 21 25 26 26 25 25 23 21 21 17 15 11 11 10 9 9 9 11 14 15 14 13 11 10 8 8 7 9 10
8 6 7 7 5 5 7 13 16 2 14 21 23 8 22 25 27 29 27 25 24 25 27 27 26 25 23 22 20 18 16 13 12 10 8 7 7 8 8 9 11 12 11 10 9 8 8 9 11
7 7 2 2 11 9 8 3 15 12 6 18 13 13 20 24 26 29 27 26 23 22 24 25 26 25 24 23 21 19 17 12 10 10 9 10 10 11 10 9 8 9 9 8 8 8 7 8 11
2 5 5 2 11 8 6 10 7 21 23 24 25 29 21 25 26 29 28 28 25 22 18 23 26 26 26 24 23 21 17 12 10 10 12 10 9 11 11 10 9 8 8 8 9 10 9 8 10
9 2 19 1 13 13 12 8 5 15 22 31 29 24 23 25 24 22 21 22 21 18 18 20 25 27 26 23 20 19 16 12 11 12 12 11 10 11 10 9 8 8 9 9 9 10 11 10 11
12 17 7 15 6 10 9 6 8 4 18 32 24 27 18 28 25 23 23 23 24 20 19 18 22 25 26 23 20 17 15 10 11 12 13 12 10 11 11 9 8 8 8 9 10 10 11 11 12
2 14 2 4 9 6 6 3 7 9 13 30 33 24 16 22 26 26 24 24 22 22 21 22 20 21 23 22 19 17 12 11 12 12 11 11 10 9 9 11 9 7 8 8 9 10 12 12 13
7 1 10 5 9 6 14 17 8 13 26 28 33 26 8 22 23 25 23 22 23 22 24 24 24 24 23 23 20 18 15 13 13 13 12 12 12 11 10 11 11 7 9 11 11 10 11 13 14
4 4 5 3 10 4 6 4 20 26 29 25 25 29 10 9 21 19 16 16 16 20 23 27 27 26 25 25 23 21 20 17 15 16 15 14 13 14 14 13 12 11 12 14 14 13 14 14 15
12 6 3 4 5 3 5 3 9 29 30 26 27 33 20 13 15 18 19 17 14 13 18 19 27 26 24 21 25 26 24 21 19 19 18 15 15 16 17 16 15 15 17 18 18 18 17 18 18
11 8 5 4 2 4 4 2 6 8 20 21 25 29 31 22 17 16 17 20 20 18 18 19 22 23 30 25 24 27 28 26 24 23 20 19 19 19 19 18 18 19 21 21 21 21 22 22 23
14 10 4 2 2 4 4 7 7 8 9 20 24 33 40 34 25 22 19 20 22 21 19 20 21 22 22 25 26 31 30 30 29 28 26 23 22 22 22 21 21 22 23 23 23 25 25 25 26
2 16 6 4 3 2 3 5 7 11 16 19 21 23 24 27 27 27 23 23 22 25 23 22 22 22 22 22 24 26 26 28 32 34 33 30 25 24 25 24 25 26 26 26 25 26 27 29 29
4 8 7 3 4 4 6 4 6 11 14 8 24 29 28 20 20 18 17 18 22 26 27 24 21 23 24 24 25 26 29 28 27 26 28 30 30 28 27 27 27 27 27 28 29 30 31 31 34
3 6 7 4 4 2 0 1 6 4 9 20 23 24 27 29 21 20 16 17 18 19 21 23 23 23 24 24 25 26 27 28 28 28 28 26 27 28 28 28 27 26 27 28 28 28 31 32 34
5 10 8 5 3 2 6 6 5 6 9 4 15 28 32 30 24 22 19 17 16 17 17 18 20 22 24 25 25 27 29 29 28 28 30 30 29 28 27 27 25 21 20 20 20 20 22 20 25
6 4 3 3 4 4 3 6 12 5 6 5 7 17 26 30 28 25 22 19 17 17 17 19 20 21 23 26 28 29 27 26 28 27 27 27 28 28 26 26 25 21 23 21 22 18 20 19 18
5 7 4 6 4 3 2 6 6 7 12 19 21 21 22 28 30 26 20 17 15 13 13 14 14 14 14 13 13 15 18 23 26 28 28 27 28 28 28 26 27 25 25 23 20 20 23 23 21
4 4 5 5 3 3 4 7 8 4 7 6 9 15 23 30 28 25 21 17 14 12 11 10 10 10 10 9 9 10 9 9 11 13 15 17 19 20 20 21 23 24 24 21 20 20 22 22 24
3 9 3 2 2 3 4 5 6 5 9 4 7 18 29 28 26 23 19 16 14 12 10 10 10 10 10 10 10 11 12 13 13 12 12 12 13 15 17 18 20 20 20 20 21 22 24 22 21
3 2 2 3 3 4 1 5 6 6 8 9 8 20 28 26 25 22 18 15 12 10 9 9 8 8 9 9 9 10 11 12 13 14 15 15 15 15 16 18 20 21 22 22 22 22 22 20 18
1 5 5 4 4 2 3 6 2 7 7 11 12 25 27 26 24 20 17 14 12 10 9 7 6 6 7 7 8 9 10 11 12 13 13 14 15 15 16 16 16 16 16 16 16 16 15 14 14
Wind_Direction
197 199 188 158 92 67 216 251 263 291 228 249 178 167 187 117 167 200 155 163 163 163 163 164 165 163 165 163 165 164 162 158 156 155 138 132 125 117 105 105 92 89 99 95 97 111 123 129 127
199 196 201 166 108 130 250 234 229 257 318 304 125 110 93 106 110 145 149 161 167 165 166 165 165 165 166 165 165 163 163 162 168 163 168 160 152 147 136 125 111 99 95 87 84 103 118 123 123
201 200 183 139 147 184 219 215 48 315 326 251 272 106 117 119 125 157 147 151 166 170 169 167 166 167 167 169 166 163 161 163 177 190 178 171 150 139 147 145 138 118 99 85 81 107 120 124 116
189 206 199 187 210 238 195 196 352 356 345 28 307 101 108 157 144 158 163 158 169 172 171 167 169 169 169 172 170 163 166 174 166 156 151 151 151 138 145 154 150 143 119 97 86 104 119 123 114
177 159 167 220 231 241 193 262 355 336 304 324 316 199 108 163 164 172 176 166 171 173 171 169 171 170 173 173 169 170 172 171 165 159 149 150 154 140 148 158 156 153 139 110 103 111 122 126 117
162 167 192 213 220 222 126 214 299 321 324 333 318 163 126 177 197 167 171 167 179 175 175 171 174 174 175 173 175 173 179 184 186 174 154 147 133 137 149 161 162 153 151 132 122 122 137 141 138
166 141 203 207 227 234 172 160 235 301 331 335 329 262 140 176 181 166 162 166 177 181 175 175 177 179 178 176 180 182 186 197 203 197 177 147 141 143 149 163 166 160 161 151 139 133 146 162 161
199 143 175 214 208 237 175 222 216 346 315 321 354 258 180 179 175 164 160 162 171 181 179 178 178 181 182 179 185 191 201 212 201 188 174 161 157 156 157 163 171 172 170 167 159 148 150 175 184
178 132 211 202 168 169 170 205 226 254 325 313 290 312 249 170 171 166 165 164 169 180 183 182 186 187 186 186 185 199 208 202 190 187 186 174 168 164 164 168 173 180 183 182 177 170 166 181 195
183 214 216 186 164 165 164 223 202 331 341 299 307 330 176 172 172 171 174 172 173 176 184 189 190 192 191 192 194 203 210 208 193 188 185 182 181 180 170 176 173 188 200 203 201 195 190 192 200
200 220 67 240 174 163 151 76 180 244 308 276 305 355 184 183 179 178 181 184 183 185 187 192 197 197 194 194 201 208 214 211 204 198 193 195 196 200 195 195 195 200 213 222 222 222 226 219 211
230 220 191 258 144 131 120 128 117 207 237 260 296 300 282 200 191 186 186 185 183 191 203 196 195 197 195 202 203 212 217 222 220 220 213 209 214 216 215 215 215 223 231 237 233 233 236 233 228
220 160 219 310 156 162 145 144 148 224 238 262 285 288 281 212 202 197 194 192 195 195 188 190 194 197 202 207 215 214 220 230 241 234 226 226 231 225 223 220 225 231 240 242 245 244 248 246 238
204 232 165 227 186 163 145 178 160 209 233 259 269 300 238 213 212 200 198 204 207 201 195 189 193 201 209 212 213 213 216 230 233 225 229 230 233 226 230 235 240 238 245 243 247 251 254 252 246
76 189 208 242 185 201 177 259 187 223 187 231 262 286 232 219 213 212 205 210 213 213 204 204 199 197 203 208 211 214 220 231 228 221 227 228 231 230 233 238 247 252 248 247 243 247 250 252 252
194 129 199 210 170 216 168 232 189 182 171 219 268 267 261 213 210 215 210 210 213 218 216 210 213 214 213 215 216 219 221 235 233 228 233 239 242 241 245 244 248 255 255 255 251 252 259 264 266
160 181 174 180 186 156 161 222 200 167 178 208 243 256 245 235 204 206 200 199 204 216 220 218 218 219 222 224 223 224 225 234 237 233 237 244 250 250 251 253 256 258 262 259 260 259 265 270 272
176 138 146 180 188 151 190 251 174 180 193 214 225 238 247 225 207 208 205 203 205 211 217 223 224 225 229 225 223 223 227 235 241 243 240 246 255 255 257 260 262 263 264 264 264 268 270 279 283
139 158 132 204 172 128 201 272 260 171 193 215 218 235 253 237 229 224 223 221 217 208 207 214 219 222 226 225 224 227 234 239 246 251 251 249 253 251 255 258 261 261 263 268 271 273 273 275 279
155 141 163 243 175 138 183 235 237 267 223 220 217 215 238 240 235 238 230 223 224 218 214 210 215 219 219 223 234 238 240 241 249 252 254 249 252 253 254 257 259 260 264 266 268 268 271 274 275
117 171 157 157 141 79 99 265 224 243 236 244 239 238 242 234 227 233 238 229 226 222 221 220 217 217 220 228 232 234 239 242 246 246 248 255 259 261 261 261 261 262 261 264 267 269 269 272 274
132 165 162 104 88 195 159 270 255 236 240 223 244 240 239 242 228 221 229 227 218 215 218 224 220 219 223 229 233 235 238 241 243 249 250 254 257 260 263 264 265 266 269 270 270 272 274 273 272
156 134 118 106 99 124 245 143 253 221 236 236 231 244 249 240 227 207 200 202 200 203 212 221 225 225 227 231 237 242 245 249 248 247 249 250 251 255 256 260 263 266 264 267 268 268 269 271 273
151 95 60 61 76 260 209 177 246 216 228 241 228 231 238 240 223 206 195 198 206 212 221 230 234 238 241 245 247 247 248 251 251 250 251 252 254 256 257 258 260 261 260 263 269 269 273 274 270
121 110 111 138 202 218 207 191 247 246 258 225 237 247 230 227 212 200 198 204 213 222 232 240 245 247 249 252 253 255 251 251 256 257 255 256 258 259 258 256 251 260 258 264 267 265 268 275 278
137 157 148 170 182 214 111 226 246 226 267 246 258 265 232 201 193 189 191 193 201 210 217 223 228 234 240 249 256 256 253 251 252 255 256 256 257 259 259 257 254 246 254 263 259 262 263 264 273
162 138 141 107 42 70 224 285 293 253 265 259 223 199 188 179 176 177 182 188 193 198 202 211 221 229 236 244 250 253 255 252 251 253 256 258 259 259 256 249 242 244 250 257 253 256 259 263 266
113 147 88 87 133 252 277 279 241 271 249 211 185 172 170 169 169 174 176 182 185 191 204 220 233 241 248 252 256 259 260 259 259 260 259 258 254 251 248 244 242 242 243 246 247 249 258 266 269
120 154 97 111 162 186 268 259 216 244 245 209 179 172 167 167 169 173 177 182 192 203 216 227 237 246 254 254 259 261 262 262 258 257 256 255 253 250 246 244 244 245 248 252 255 258 262 265 266
230 160 149 129 193 189 160 272 321 269 234 167 172 171 172 173 173 178 184 191 199 208 216 223 240 252 262 265 264 265 265 265 263 260 256 252 250 249 249 249 249 251 253 255 256 259 261 265 271
Height
1518 1518 1519 1520 1531 1534 1537 1530 1518 1515 1512 1508 1507 1507 1507 1508 1511 1523 1509 1514 1517 1520 1524 1529 1533 1537 1540 1543 1545 1547 1549 1551 1552 1553 1553 1554 1555 1555 1556 1556 1558 1558 1558 1559 1558 1558 1557 1558 1559
1516 1518 1519 1519 1534 1542 1535 1521 1518 1514 1511 1508 1508 1507 1507 1508 1508 1509 1511 1513 1518 1521 1525 1529 1533 1537 1541 1543 1546 1548 1550 1552 1553 1553 1554 1554 1555 1556 1557 1558 1559 1560 1561 1561 1560 1560 1559 1560 1561
1515 1516 1518 1520 1532 1536 1530 1515 1513 1512 1509 1509 1509 1508 1507 1506 1508 1510 1513 1513 1518 1522 1526 1530 1534 1537 1541 1544 1546 1548 1551 1552 1553 1554 1554 1555 1556 1557 1558 1559 1560 1562 1562 1563 1563 1562 1562 1562 1563
1512 1517 1518 1520 1527 1520 1515 1513 1513 1511 1507 1509 1510 1508 1509 1507 1508 1513 1515 1517 1520 1522 1527 1531 1535 1538 1541 1544 1546 1549 1552 1553 1553 1554 1554 1555 1556 1557 1558 1560 1561 1563 1564 1564 1565 1564 1564 1564 1565
1511 1514 1521 1525 1520 1514 1511 1511 1511 1512 1513 1512 1510 1507 1507 1508 1510 1513 1515 1518 1521 1524 1528 1532 1535 1538 1541 1544 1547 1550 1552 1553 1554 1554 1555 1556 1557 1558 1559 1561 1562 1564 1565 1566 1567 1567 1566 1566 1567
1511 1512 1517 1522 1515 1509 1510 1511 1513 1513 1512 1512 1509 1507 1507 1509 1510 1511 1516 1520 1524 1525 1528 1532 1536 1539 1541 1545 1547 1550 1551 1552 1554 1554 1555 1557 1557 1558 1560 1562 1563 1565 1566 1568 1569 1569 1568 1569 1570
1506 1510 1514 1510 1514 1509 1508 1510 1513 1513 1513 1513 1514 1510 1508 1509 1511 1513 1516 1520 1524 1527 1529 1533 1537 1540 1542 1545 1548 1550 1551 1553 1554 1554 1555 1556 1558 1559 1560 1562 1564 1565 1567 1569 1570 1570 1570 1571 1572
1504 1507 1510 1510 1508 1506 1507 1507 1511 1512 1513 1514 1513 1512 1508 1506 1511 1515 1518 1521 1524 1528 1531 1535 1538 1541 1543 1545 1548 1550 1552 1554 1555 1556 1556 1556 1557 1558 1560 1562 1564 1566 1568 1569 1570 1571 1572 1572 1573
1503 1509 1504 1505 1507 1506 1504 1504 1508 1512 1513 1514 1514 1512 1507 1504 1509 1514 1518 1521 1524 1528 1532 1535 1539 1541 1543 1546 1548 1550 1552 1554 1555 1557 1558 1559 1560 1559 1560 1562 1564 1566 1567 1569 1570 1571 1572 1572 1573
1498 1500 1499 1496 1499 1501 1501 1503 1503 1512 1514 1512 1512 1509 1508 1506 1508 1512 1517 1519 1522 1527 1531 1535 1538 1540 1543 1545 1548 1549 1551 1553 1555 1556 1558 1559 1560 1562 1563 1563 1564 1566 1568 1569 1570 1571 1571 1572 1573
1493 1493 1496 1496 1496 1498 1500 1504 1503 1512 1515 1513 1517 1516 1516 1509 1510 1511 1515 1519 1522 1527 1530 1533 1537 1540 1542 1545 1547 1549 1551 1552 1554 1556 1557 1559 1560 1560 1562 1563 1564 1566 1567 1568 1569 1570 1572 1572 1573
1494 1495 1496 1497 1496 1497 1501 1504 1506 1510 1508 1511 1516 1519 1518 1514 1509 1509 1513 1518 1522 1526 1529 1532 1535 1539 1542 1544 1547 1549 1550 1552 1553 1555 1556 1558 1559 1560 1561 1563 1564 1565 1567 1567 1568 1570 1571 1571 1572
1494 1494 1496 1498 1496 1497 1499 1502 1506 1507 1509 1509 1515 1516 1514 1514 1513 1514 1517 1519 1523 1526 1528 1531 1533 1537 1541 1543 1546 1548 1550 1551 1553 1554 1556 1557 1558 1560 1561 1562 1563 1564 1566 1567 1567 1568 1569 1570 1571
1492 1495 1495 1497 1498 1498 1500 1503 1505 1508 1508 1512 1514 1513 1510 1512 1514 1516 1517 1519 1521 1525 1528 1530 1532 1536 1539 1542 1544 1546 1549 1551 1551 1553 1554 1556 1558 1559 1560 1561 1562 1563 1565 1566 1566 1567 1567 1568 1569
1492 1495 1495 1495 1496 1498 1501 1504 1500 1507 1510 1517 1511 1514 1509 1512 1513 1514 1516 1519 1523 1524 1527 1529 1532 1534 1537 1540 1543 1545 1547 1549 1550 1552 1553 1554 1556 1558 1559 1560 1562 1562 1563 1564 1564 1565 1565 1566 1567
1493 1495 1498 1492 1494 1496 1499 1501 1498 1505 1511 1514 1508 1511 1510 1509 1511 1514 1516 1518 1521 1523 1524 1527 1530 1533 1536 1538 1541 1544 1545 1547 1549 1551 1552 1553 1554 1556 1558 1559 1560 1561 1562 1563 1563 1563 1564 1564 1565
1491 1498 1496 1492 1492 1493 1497 1499 1496 1502 1511 1513 1512 1508 1510 1511 1510 1513 1515 1517 1518 1520 1523 1526 1528 1530 1533 1536 1539 1542 1544 1545 1547 1549 1550 1552 1553 1554 1555 1556 1558 1559 1559 1560 1561 1562 1562 1562 1563
1483 1495 1496 1496 1494 1495 1498 1497 1493 1496 1504 1507 1508 1507 1506 1511 1511 1512 1514 1516 1517 1519 1520 1523 1526 1528 1530 1533 1535 1538 1540 1542 1544 1545 1547 1549 1550 1551 1552 1553 1554 1556 1557 1557 1558 1558 1559 1559 1559
1479 1488 1494 1493 1491 1494 1498 1497 1494 1495 1499 1502 1504 1508 1507 1507 1509 1510 1510 1512 1514 1516 1519 1520 1523 1524 1527 1529 1532 1534 1535 1538 1539 1542 1544 1546 1547 1548 1549 1550 1551 1553 1553 1554 1555 1556 1555 1555 1556
1476 1485 1493 1491 1489 1494 1498 1500 1497 1494 1495 1498 1499 1504 1504 1503 1504 1504 1505 1507 1510 1512 1515 1518 1520 1522 1524 1527 1530 1531 1533 1535 1537 1539 1540 1542 1543 1545 1546 1547 1548 1549 1550 1551 1552 1552 1552 1552 1553
1479 1479 1491 1489 1490 1495 1496 1500 1494 1487 1488 1491 1493 1494 1495 1496 1497 1500 1501 1503 1506 1509 1511 1514 1517 1520 1523 1525 1526 1528 1529 1529 1532 1533 1535 1537 1539 1541 1542 1543 1544 1545 1546 1546 1547 1548 1548 1548 1549
1478 1478 1484 1488 1494 1504 1495 1509 1493 1483 1484 1486 1484 1485 1488 1491 1493 1496 1497 1499 1502 1504 1507 1510 1513 1515 1517 1520 1521 1523 1524 1525 1527 1529 1531 1533 1536 1537 1537 1538 1539 1539 1540 1541 1542 1542 1543 1544 1543
1477 1477 1483 1490 1497 1497 1499 1506 1491 1485 1482 1471 1473 1479 1482 1487 1489 1492 1494 1496 1499 1501 1504 1506 1509 1511 1513 1515 1517 1518 1519 1521 1523 1525 1526 1528 1529 1530 1531 1532 1533 1534 1534 1535 1536 1536 1537 1538 1538
1478 1481 1488 1492 1499 1505 1499 1501 1489 1481 1470 1467 1468 1473 1476 1481 1485 1488 1491 1494 1497 1499 1502 1504 1506 1507 1509 1510 1511 1513 1514 1516 1517 1519 1520 1522 1524 1525 1527 1528 1528 1528 1529 1530 1530 1530 1530 1531 1531
1478 1485 1493 1499 1499 1498 1498 1498 1475 1471 1468 1466 1465 1466 1469 1473 1479 1483 1486 1490 1493 1496 1499 1501 1502 1503 1504 1505 1506 1507 1509 1510 1511 1513 1515 1516 1518 1520 1522 1522 1523 1524 1525 1525 1526 1525 1526 1526 1526
1479 1486 1503 1502 1493 1497 1497 1492 1474 1463 1459 1460 1462 1461 1464 1468 1473 1479 1485 1488 1490 1493 1495 1497 1499 1500 1500 1501 1502 1502 1503 1505 1507 1508 1510 1511 1512 1513 1515 1516 1517 1517 1519 1520 1521 1521 1522 1521 1521
1482 1491 1491 1502 1505 1518 1494 1481 1466 1459 1460 1457 1455 1457 1460 1466 1472 1476 1481 1485 1488 1490 1493 1495 1497 1498 1499 1499 1500 1501 1501 1501 1502 1503 1504 1505 1506 1507 1508 1509 1511 1512 1514 1515 1516 1516 1516 1515 1516
1475 1484 1494 1494 1519 1502 1489 1487 1472 1459 1457 1458 1458 1458 1460 1466 1471 1477 1480 1483 1486 1489 1492 1494 1496 1497 1498 1497 1498 1499 1500 1500 1500 1500 1501 1502 1503 1504 1504 1505 1507 1508 1509 1510 1511 1511 1510 1509 1509
1481 1482 1486 1491 1499 1502 1503 1478 1462 1458 1455 1454 1456 1458 1461 1467 1471 1475 1478 1482 1485 1487 1490 1492 1494 1495 1496 1495 1495 1496 1497 1498 1497 1498 1498 1498 1499 1500 1501 1502 1502 1503 1504 1505 1505 1505 1504 1504 1504
1472 1474 1481 1501 1490 1498 1514 1481 1457 1455 1452 1453 1458 1460 1464 1468 1471 1475 1477 1480 1483 1486 1488 1490 1491 1492 1492 1492 1492 1494 1492 1495 1494 1494 1494 1494 1495 1496 1497 1498 1498 1498 1499 1500 1500 1500 1500 1499 1499